This demonstration page uses our WeatherBlox Daily Observations layout. Learn more.

Left ArrowRight Arrow

38.20091, -84.87328

Hourly Observations for September 23, 2021

Temp ( °F °C ) Dew Point ( °F °C ) Humidity (%) Winds ( mph kmh ) Pressure ( in mb ) Visibility ( mi km ) Precip ( " mm )
12:25 am 00:25 Cloudy 55 12.8 53 11.7 93 93 VRB 6 9 29.99 1016 10 16 0.00 0.00
12:33 am 00:33 Cloudy 55 12.8 53 11.7 93 93 W 6 9 29.98 1015 10 16 0.00 0.00
12:53 am 00:53 Cloudy 55 12.8 53 11.7 93 93 W 7 11 29.97 1015 10 16 0.00 0.00
1:06 am 01:06 Cloudy 55 12.8 53 11.7 93 93 W 7 11 29.98 1015 10 16 0.00 0.00
1:11 am 01:11 Cloudy 55 12.8 53 11.7 93 93 W 6 9 29.98 1015 10 16 0.00 0.00
1:25 am 01:25 Cloudy 55 12.8 53 11.7 93 93 WNW 6 9 29.98 1015 10 16 0.00 0.00
1:53 am 01:53 Cloudy 55 12.8 53 11.7 93 93 W 5 7 29.97 1015 10 16 0.00 0.00
2:22 am 02:22 Cloudy 55 12.8 53 11.7 93 93 W 5 7 29.97 1015 10 16 0.00 0.00
2:53 am 02:53 Cloudy 55 12.8 53 11.7 93 93 W 7 11 29.96 1015 10 16 0.00 0.00
3:53 am 03:53 Mostly Clear 54 12.2 52 11.1 93 93 W 5 7 29.96 1015 10 16 0.00 0.00
4:53 am 04:53 Cloudy 54 12.2 52 11.1 93 93 WSW 6 9 29.95 1014 10 16 0.00 0.00
5:53 am 05:53 Clear 52 11.1 51 10.6 97 97 WSW 6 9 29.96 1015 10 16 0.00 0.00
6:53 am 06:53 Clear 51 10.6 50 10 96 96 WSW 7 11 29.96 1015 10 16 0.00 0.00
7:53 am 07:53 Sunny 51 10.6 49 9.4 92 92 WSW 7 11 29.98 1015 10 16 0.00 0.00
8:53 am 08:53 Sunny 53 11.7 50 10 89 89 WSW 7 11 29.98 1015 10 16 0.00 0.00
9:53 am 09:53 Sunny 56 13.3 51 10.6 84 84 W 9 15 29.99 1016 10 16 0.00 0.00
10:53 am 10:53 Sunny 60 15.6 53 11.7 78 78 WSW 8 13 30.00 1016 10 16 0.00 0.00
11:53 am 11:53 Mostly Sunny 62 16.7 51 10.6 67 67 W 14 22 30.00 1016 10 16 0.00 0.00
12:53 pm 12:53 Mostly Sunny 65 18.3 48 8.9 54 54 W 14 22 30.01 1016 10 16 0.00 0.00
1:53 pm 13:53 Partly Cloudy 65 18.3 49 9.4 56 56 WNW 6 9 30.01 1016 10 16 0.00 0.00
2:53 pm 14:53 Mostly Sunny 68 20 47 8.3 47 47 WSW 15 24 29.99 1016 10 16 0.00 0.00
3:53 pm 15:53 Mostly Cloudy 68 20 45 7.2 44 44 W 12 19 29.98 1015 10 16 0.00 0.00
4:53 pm 16:53 Sunny 68 20 41 5 38 38 W 10 17 29.98 1015 10 16 0.00 0.00
5:53 pm 17:53 Sunny 66 18.9 43 6.1 43 43 W 10 17 29.99 1016 10 16 0.00 0.00
6:53 pm 18:53 Partly Cloudy 64 17.8 44 6.7 48 48 WSW 6 9 30.00 1016 10 16 0.00 0.00
7:53 pm 19:53 Clear 56 13.3 50 10 81 81 WSW 3 6 30.01 1016 10 16 0.00 0.00
8:53 pm 20:53 Clear 56 13.3 48 8.9 75 75 SW 5 7 30.03 1017 10 16 0.00 0.00
9:53 pm 21:53 Clear 52 11.1 49 9.4 89 89 SW 5 7 30.05 1018 10 16 0.00 0.00
10:53 pm 22:53 Clear 51 10.6 48 8.9 89 89 SW 5 7 30.05 1018 10 16 0.00 0.00
11:53 pm 23:53 Clear 51 10.6 47 8.3 86 86 WSW 5 7 30.06 1018 10 16 0.00 0.00

Powered by AerisWeather